Big Bear Station Historical Data
Daily Summary for December 1, 2017 Units:  English    Metric   Both
Next Day »
Daily Weekly Monthly Yearly Custom
  High: Low: Average:
Temperature: 58.3 °F 32.0 °F 42.3 °F
Dew Point: 38.0 °F 25.7 °F 31.7 °F
Humidity: 94% 39% 69%
Wind Speed: 6.8mph 0.0mph 0.7mph
Wind Gust: -999.0mph - -
Wind- - WSW
Pressure: 30.23 in 30.18 in -
Precipitation: 0.00 in    
Historical Graphs
 
 
Tabular Data for December 1, 2017
Time Temperature Dew Point Pressure Wind Wind Speed Wind Gust Humidity Rainfall Rate (Hourly)
00:02 35.2 °F 25.7 °F 30.23 in Calm   -999.0 mph 68% 0 in
00:17 35.2 °F 27.1 °F 30.23 in Calm   -999.0 mph 72% 0 in
00:47 35.2 °F 28.4 °F 30.22 in Calm   -999.0 mph 76% 0 in
01:02 35.8 °F 29.3 °F 30.22 in Calm   -999.0 mph 77% 0 in
01:18 34.9 °F 29.4 °F 30.21 in Calm   -999.0 mph 80% 0 in
01:33 34.9 °F 30.6 °F 30.21 in Calm   -999.0 mph 84% 0 in
01:48 34.7 °F 29.8 °F 30.21 in Calm   -999.0 mph 82% 0 in
02:03 34.9 °F 30.3 °F 30.21 in Calm   -999.0 mph 83% 0 in
02:18 34.9 °F 31.1 °F 30.21 in Calm   -999.0 mph 86% 0 in
02:34 34.7 °F 31.5 °F 30.21 in Calm   -999.0 mph 88% 0 in
02:49 34.3 °F 30.8 °F 30.21 in Calm   -999.0 mph 87% 0 in
03:04 34.2 °F 30.5 °F 30.21 in Calm   -999.0 mph 86% 0 in
03:20 34.2 °F 31.0 °F 30.20 in Calm   -999.0 mph 88% 0 in
03:35 34.0 °F 31.4 °F 30.20 in Calm   -999.0 mph 90% 0 in
03:50 33.6 °F 31.3 °F 30.20 in Calm   -999.0 mph 91% 0 in
04:06 33.8 °F 31.5 °F 30.20 in Calm   -999.0 mph 91% 0 in
04:21 33.6 °F 31.3 °F 30.19 in Calm   -999.0 mph 91% 0 in
04:36 33.1 °F 30.8 °F 30.19 in Calm   -999.0 mph 91% 0 in
04:51 33.1 °F 31.0 °F 30.19 in Calm   -999.0 mph 92% 0 in
05:06 32.7 °F 30.6 °F 30.19 in Calm   -999.0 mph 92% 0 in
05:22 32.5 °F 30.4 °F 30.20 in Calm   -999.0 mph 92% 0 in
05:37 32.2 °F 30.1 °F 30.20 in Calm   -999.0 mph 92% 0 in
05:53 32.5 °F 30.4 °F 30.20 in Calm   -999.0 mph 92% 0 in
06:08 32.0 °F 29.9 °F 30.21 in Calm   -999.0 mph 92% 0 in
06:23 32.0 °F 29.9 °F 30.21 in Calm   -999.0 mph 92% 0 in
07:24 32.5 °F 30.4 °F 30.22 in Calm   -999.0 mph 92% 0 in
07:39 32.7 °F 30.6 °F 30.23 in Calm   -999.0 mph 92% 0 in
07:54 33.4 °F 31.6 °F 30.23 in Calm   -999.0 mph 93% 0 in
08:10 33.8 °F 31.7 °F 30.23 in Calm   -999.0 mph 92% 0 in
08:55 36.0 °F 34.4 °F 30.23 in Calm   -999.0 mph 94% 0 in
09:11 37.6 °F 35.8 °F 30.23 in Calm   -999.0 mph 93% 0 in
09:26 41.9 °F 38.0 °F 30.23 in Calm   -999.0 mph 86% 0 in
10:12 51.3 °F 36.1 °F 30.23 in SSW 2.2 mph -999.0 mph 56% 0 in
10:27 53.6 °F 35.4 °F 30.22 in West 1.7 mph -999.0 mph 50% 0 in
10:42 53.6 °F 35.9 °F 30.22 in WNW 4.2 mph -999.0 mph 51% 0 in
11:13 55.4 °F 35.5 °F 30.21 in SW 3.2 mph -999.0 mph 47% 0 in
11:28 55.0 °F 35.1 °F 30.21 in NW 6.8 mph -999.0 mph 47% 0 in
11:43 55.8 °F 33.6 °F 30.21 in SW 1.7 mph -999.0 mph 43% 0 in
12:13 56.8 °F 33.3 °F 30.19 in WNW 2.7 mph -999.0 mph 41% 0 in
12:29 58.3 °F 33.4 °F 30.19 in ESE 1.1 mph -999.0 mph 39% 0 in
12:44 57.0 °F 34.1 °F 30.18 in NW 4.7 mph -999.0 mph 42% 0 in
12:59 55.9 °F 33.7 °F 30.18 in WNW 4.7 mph -999.0 mph 43% 0 in
13:14 55.2 °F 33.7 °F 30.18 in West 3.7 mph -999.0 mph 44% 0 in
13:30 55.0 °F 32.3 °F 30.18 in NNW 3.2 mph -999.0 mph 42% 0 in
13:45 55.4 °F 32.1 °F 30.18 in WNW 2.2 mph -999.0 mph 41% 0 in
14:15 54.7 °F 32.6 °F 30.18 in WNW 2.2 mph -999.0 mph 43% 0 in
14:46 53.8 °F 32.9 °F 30.18 in WSW 1.1 mph -999.0 mph 45% 0 in
15:01 53.4 °F 32.0 °F 30.18 in SSE 1.7 mph -999.0 mph 44% 0 in
15:17 53.1 °F 32.3 °F 30.18 in Calm   -999.0 mph 45% 0 in
15:48 52.0 °F 32.4 °F 30.18 in Calm   -999.0 mph 47% 0 in
16:03 51.1 °F 32.6 °F 30.18 in ENE 1.1 mph -999.0 mph 49% 0 in
16:18 49.8 °F 32.4 °F 30.18 in Calm   -999.0 mph 51% 0 in
16:34 48.7 °F 32.3 °F 30.18 in Calm   -999.0 mph 53% 0 in
16:49 47.8 °F 32.0 °F 30.18 in Calm   -999.0 mph 54% 0 in
17:04 47.1 °F 31.8 °F 30.18 in Calm   -999.0 mph 55% 0 in
17:19 46.8 °F 31.9 °F 30.18 in South 1.1 mph -999.0 mph 56% 0 in
17:34 46.4 °F 31.5 °F 30.19 in Calm   -999.0 mph 56% 0 in
17:50 45.7 °F 31.8 °F 30.19 in Calm   -999.0 mph 58% 0 in
18:05 45.7 °F 31.8 °F 30.20 in Calm   -999.0 mph 58% 0 in
18:20 45.1 °F 31.2 °F 30.19 in Calm   -999.0 mph 58% 0 in
18:35 44.4 °F 31.4 °F 30.20 in Calm   -999.0 mph 60% 0 in
18:50 44.1 °F 31.1 °F 30.20 in Calm   -999.0 mph 60% 0 in
19:21 42.8 °F 30.7 °F 30.20 in Calm   -999.0 mph 62% 0 in
19:37 42.4 °F 31.1 °F 30.20 in South 2.2 mph -999.0 mph 64% 0 in
20:07 39.9 °F 29.5 °F 30.21 in Calm   -999.0 mph 66% 0 in
20:22 39.4 °F 29.7 °F 30.21 in Calm   -999.0 mph 68% 0 in
21:24 38.5 °F 30.3 °F 30.21 in Calm   -999.0 mph 72% 0 in
21:39 39.4 °F 30.4 °F 30.21 in Calm   -999.0 mph 70% 0 in
21:54 39.7 °F 30.7 °F 30.22 in Calm   -999.0 mph 70% 0 in
22:10 40.1 °F 31.5 °F 30.21 in Calm   -999.0 mph 71% 0 in
22:41 42.1 °F 31.9 °F 30.21 in Calm   -999.0 mph 67% 0 in
22:56 41.7 °F 31.5 °F 30.22 in Calm   -999.0 mph 67% 0 in
23:11 41.7 °F 31.5 °F 30.21 in Calm   -999.0 mph 67% 0 in
23:27 41.4 °F 31.6 °F 30.21 in Calm   -999.0 mph 68% 0 in
23:42 41.2 °F 31.8 °F 30.21 in Calm   -999.0 mph 69% 0 in
23:58 40.6 °F 30.9 °F 30.21 in South 2.7 mph -999.0 mph 68% 0 in
Big Bear CA Weather